TimeEDT,TemperatureF,Dew PointF,Humidity,Sea Level PressureIn,VisibilityMPH,Wind Direction,Wind SpeedMPH,Gust SpeedMPH,PrecipitationIn,Events,Conditions,WindDirDegrees,DateUTC
12:14 AM,21.2,17.6,86,29.88,8.0,WNW,9.2,-,0.00,Snow,Light Snow,300,2013-04-02 04:14:00
12:56 AM,21.9,15.1,75,29.96,4.0,NW,12.7,27.6,0.00,Snow,Light Snow,320,2013-04-02 04:56:00
1:09 AM,21.2,15.8,80,29.89,9.0,NW,12.7,-,0.00,Snow,Light Snow,310,2013-04-02 05:09:00
1:56 AM,21.0,15.1,78,29.98,8.0,WNW,12.7,-,0.00,Snow,Light Snow,300,2013-04-02 05:56:00
2:02 AM,21.2,15.8,80,29.89,2.5,WNW,9.2,-,0.00,Snow,Light Snow,300,2013-04-02 06:02:00
2:05 AM,21.2,15.8,80,29.89,1.8,NW,11.5,-,0.00,Snow,Light Snow,310,2013-04-02 06:05:00
2:12 AM,19.4,15.8,86,29.89,3.0,WNW,10.4,-,0.00,Snow,Light Snow,290,2013-04-02 06:12:00
2:30 AM,19.4,14.0,80,29.89,10.0,WNW,10.4,-,0.00,,Scattered Clouds,300,2013-04-02 06:30:00
2:44 AM,21.2,15.8,80,29.89,10.0,WNW,10.4,-,0.00,,Mostly Cloudy,300,2013-04-02 06:44:00
2:56 AM,19.9,15.1,81,29.97,1.5,WNW,11.5,-,0.00,Snow,Light Snow,300,2013-04-02 06:56:00
3:04 AM,19.4,15.8,86,29.89,1.0,WNW,9.2,-,0.01,Snow,Light Snow,300,2013-04-02 07:04:00
3:11 AM,19.4,15.8,86,29.89,4.0,WNW,8.1,-,0.01,Snow,Light Snow,290,2013-04-02 07:11:00
3:20 AM,19.4,15.8,86,29.89,9.0,WNW,6.9,-,0.01,,Overcast,300,2013-04-02 07:20:00
3:36 AM,19.4,15.8,86,29.89,1.5,NW,9.2,-,0.01,Snow,Light Snow,310,2013-04-02 07:36:00
3:39 AM,19.4,15.8,86,29.89,0.8,NNW,12.7,19.6,0.01,Snow,Light Snow,330,2013-04-02 07:39:00
3:44 AM,19.4,15.8,86,29.89,0.5,NW,10.4,19.6,0.01,Snow,Snow,320,2013-04-02 07:44:00
3:56 AM,19.0,15.1,85,29.98,0.5,WNW,10.4,19.6,0.02,Fog-Snow,Snow,300,2013-04-02 07:56:00
4:06 AM,19.4,14.0,80,29.89,2.5,NW,13.8,21.9,0.00,Snow,Light Snow,310,2013-04-02 08:06:00
4:12 AM,19.4,12.2,74,29.89,9.0,NW,16.1,23.0,0.00,Snow,Light Snow,310,2013-04-02 08:12:00
4:24 AM,19.4,12.2,74,29.89,10.0,NW,12.7,-,0.00,,Mostly Cloudy,310,2013-04-02 08:24:00
4:56 AM,18.0,12.0,78,29.98,10.0,WNW,9.2,-,0.00,,Mostly Cloudy,300,2013-04-02 08:56:00
5:07 AM,17.6,10.4,73,29.89,10.0,WNW,11.5,-,N/A,,Mostly Cloudy,300,2013-04-02 09:07:00
5:19 AM,17.6,10.4,73,29.89,10.0,WNW,10.4,-,N/A,,Mostly Cloudy,300,2013-04-02 09:19:00
5:56 AM,16.0,10.0,77,30.00,10.0,WNW,5.8,-,N/A,,Mostly Cloudy,300,2013-04-02 09:56:00
6:18 AM,17.6,10.4,73,29.90,10.0,West,8.1,-,N/A,,Mostly Cloudy,270,2013-04-02 10:18:00
6:39 AM,17.6,12.2,79,29.90,2.5,West,9.2,-,0.00,Snow,Light Snow,280,2013-04-02 10:39:00
6:48 AM,17.6,12.2,79,29.91,1.8,West,6.9,-,0.00,Snow,Light Snow,280,2013-04-02 10:48:00
6:52 AM,17.6,12.2,79,29.91,3.0,West,6.9,-,0.00,Snow,Light Snow,270,2013-04-02 10:52:00
6:56 AM,18.0,12.9,81,30.01,5.0,West,5.8,-,0.00,Snow,Light Snow,280,2013-04-02 10:56:00
7:09 AM,17.6,14.0,86,29.92,1.8,West,11.5,-,0.00,Snow,Light Snow,270,2013-04-02 11:09:00
7:19 AM,19.4,14.0,80,29.92,0.5,WNW,10.4,-,0.00,Snow,Snow,300,2013-04-02 11:19:00
7:30 AM,17.6,14.0,86,29.92,1.0,WNW,8.1,-,0.00,Snow,Light Snow,290,2013-04-02 11:30:00
7:36 AM,19.4,14.0,80,29.93,3.0,WNW,11.5,-,0.00,Snow,Light Snow,290,2013-04-02 11:36:00
7:49 AM,19.4,12.2,74,29.93,1.8,WNW,12.7,19.6,0.00,Snow,Light Snow,290,2013-04-02 11:49:00
7:56 AM,19.0,12.9,77,30.03,2.5,WNW,16.1,21.9,0.00,Snow,Light Snow,300,2013-04-02 11:56:00
8:03 AM,19.4,12.2,74,29.94,6.0,West,9.2,20.7,0.00,Snow,Light Snow,280,2013-04-02 12:03:00
8:56 AM,19.9,12.0,71,30.05,9.0,West,16.1,19.6,0.01,,Overcast,280,2013-04-02 12:56:00
9:27 AM,21.2,10.4,63,29.95,7.0,WNW,21.9,33.4,N/A,,Mostly Cloudy,290,2013-04-02 13:27:00
9:56 AM,21.9,10.9,63,30.06,7.0,WNW,16.1,24.2,0.00,Snow,Light Snow,290,2013-04-02 13:56:00
10:56 AM,25.0,10.9,55,30.05,10.0,WNW,21.9,28.8,0.00,,Overcast,290,2013-04-02 14:56:00
11:56 AM,25.0,12.0,58,30.06,10.0,WNW,20.7,27.6,0.00,,Overcast,300,2013-04-02 15:56:00
12:56 PM,26.1,12.0,55,30.06,10.0,West,17.3,29.9,N/A,,Overcast,270,2013-04-02 16:56:00
1:56 PM,28.0,14.0,56,30.05,10.0,WNW,20.7,29.9,0.00,,Mostly Cloudy,300,2013-04-02 17:56:00
2:56 PM,30.0,12.0,47,30.05,10.0,WNW,25.3,33.4,0.00,,Mostly Cloudy,290,2013-04-02 18:56:00
3:56 PM,30.0,10.9,45,30.04,10.0,WNW,15.0,26.5,N/A,,Mostly Cloudy,300,2013-04-02 19:56:00
4:56 PM,28.0,10.0,47,30.07,10.0,WNW,20.7,-,N/A,,Clear,290,2013-04-02 20:56:00
5:56 PM,28.0,9.0,45,30.09,10.0,WNW,19.6,33.4,N/A,,Overcast,290,2013-04-02 21:56:00
6:56 PM,26.1,10.0,51,30.12,10.0,WNW,18.4,33.4,N/A,,Overcast,300,2013-04-02 22:56:00
7:56 PM,25.0,12.9,60,30.13,9.0,West,10.4,25.3,0.00,Snow,Light Snow,280,2013-04-02 23:56:00
8:56 PM,25.0,12.0,58,30.14,10.0,West,12.7,-,0.00,,Overcast,280,2013-04-03 00:56:00
9:56 PM,24.1,12.0,60,30.14,10.0,WNW,10.4,-,N/A,,Mostly Cloudy,290,2013-04-03 01:56:00
10:49 PM,24.8,15.8,69,30.05,2.5,NW,10.4,19.6,0.00,Snow,Light Snow,310,2013-04-03 02:49:00
10:56 PM,23.0,18.0,81,30.15,1.2,NW,11.5,-,0.00,Snow,Light Snow,310,2013-04-03 02:56:00
11:18 PM,23.0,19.4,86,30.05,3.0,WNW,11.5,-,0.00,Snow,Light Snow,300,2013-04-03 03:18:00
11:56 PM,21.9,17.1,82,30.14,10.0,West,6.9,-,0.00,,Partly Cloudy,280,2013-04-03 03:56:00